• In Deutschland
  • Länderverzeichnis
  • Für 7 Tage
  • Wassertemperatur
  • Satellitenkarten
  • Wetterkarte
  • Widgets
  • user-avatar
    Anmelden

    Stündliche Wetter Bad Schandau

    Heute, 12 Dezember, Dienstag

    Zeit Temperatur Niederschläge Wind Luftdruck Luftfeuchtigkeit
    00:00 +1°C° 0,6 mm 5 m/S 691 mmHg 91%
    01:00 +1°C° 0 mm 5 m/S 692 mmHg 89%
    02:00 +1°C° 0,3 mm 5 m/S 693 mmHg 89%
    03:00 -1°C° 0,3 mm 6 m/S 694 mmHg 89%
    04:00 -1°C° 0,3 mm 6 m/S 695 mmHg 88%
    05:00 -2°C° 0,2 mm 6 m/S 697 mmHg 88%
    06:00 -1°C° 0,2 mm 5 m/S 698 mmHg 88%
    07:00 -2°C° 0,2 mm 5 m/S 699 mmHg 88%
    08:00 -2°C° 0,1 mm 5 m/S 700 mmHg 87%
    09:00 -2°C° 0,1 mm 5 m/S 701 mmHg 87%
    10:00 -2°C° 0,1 mm 4 m/S 703 mmHg 87%
    11:00 -2°C° 0,1 mm 4 m/S 703 mmHg 87%
    12:00 -1°C° 0,1 mm 4 m/S 704 mmHg 86%
    13:00 -1°C° 0,1 mm 4 m/S 705 mmHg 86%
    14:00 -1°C° 0,1 mm 4 m/S 706 mmHg 87%
    15:00 0°C° 0,1 mm 3 m/S 706 mmHg 88%
    16:00 -1°C° 0,1 mm 3 m/S 707 mmHg 89%
    17:00 -1°C° 0,1 mm 3 m/S 707 mmHg 90%
    18:00 -2°C° 0,1 mm 3 m/S 708 mmHg 91%
    19:00 -2°C° 0,1 mm 2 m/S 708 mmHg 92%
    20:00 -3°C° 0 mm 2 m/S 709 mmHg 92%
    21:00 -3°C° 0 mm 2 m/S 710 mmHg 92%
    22:00 -4°C° 0 mm 2 m/S 710 mmHg 92%
    23:00 -4°C° 0 mm 2 m/S 711 mmHg 93%

    Morgen, 13 Dezember, Mittwoch

    Zeit Temperatur Niederschläge Wind Luftdruck Luftfeuchtigkeit
    00:00 -4°C° 0 mm 2 m/S 711 mmHg 93%
    01:00 -4°C° 0 mm 2 m/S 711 mmHg 93%
    02:00 -5°C° 0 mm 3 m/S 711 mmHg 93%
    03:00 -6°C° 0 mm 3 m/S 711 mmHg 93%
    04:00 -6°C° 0 mm 3 m/S 711 mmHg 93%
    05:00 -6°C° 0 mm 3 m/S 711 mmHg 92%
    06:00 -6°C° 0 mm 3 m/S 711 mmHg 90%
    07:00 -6°C° 0 mm 3 m/S 711 mmHg 89%
    08:00 -5°C° 0 mm 4 m/S 711 mmHg 85%
    09:00 -4°C° 0 mm 4 m/S 711 mmHg 80%
    10:00 -4°C° 0 mm 4 m/S 710 mmHg 75%
    11:00 -3°C° 0 mm 4 m/S 709 mmHg 73%
    12:00 -1°C° 0 mm 4 m/S 708 mmHg 70%
    13:00 0°C° 0 mm 4 m/S 708 mmHg 68%
    14:00 -1°C° 0,1 mm 4 m/S 707 mmHg 70%
    15:00 -1°C° 0,1 mm 4 m/S 706 mmHg 73%
    16:00 -1°C° 0,1 mm 4 m/S 706 mmHg 75%
    17:00 -1°C° 0,5 mm 4 m/S 705 mmHg 77%
    18:00 0°C° 0,5 mm 5 m/S 705 mmHg 78%
    19:00 0°C° 0,5 mm 5 m/S 705 mmHg 80%
    20:00 0°C° 0,3 mm 5 m/S 704 mmHg 81%
    21:00 0°C° 0,3 mm 5 m/S 703 mmHg 83%
    22:00 0°C° 0,3 mm 5 m/S 703 mmHg 85%
    23:00 +1°C° 0,5 mm 6 m/S 702 mmHg 85%

    übermorgen, 14 Dezember, Donnerstag

    Zeit Temperatur Niederschläge Wind Luftdruck Luftfeuchtigkeit
    00:00 +1°C° 0,5 mm 6 m/S 702 mmHg 85%
    01:00 0°C° 0,5 mm 7 m/S 701 mmHg 85%
    02:00 +2°C° 0,1 mm 7 m/S 701 mmHg 86%
    03:00 +2°C° 0,1 mm 7 m/S 701 mmHg 87%
    04:00 +2°C° 0,1 mm 7 m/S 700 mmHg 88%
    05:00 +2°C° 0,4 mm 7 m/S 701 mmHg 88%
    06:00 +2°C° 0,4 mm 7 m/S 701 mmHg 89%
    07:00 +2°C° 0,4 mm 7 m/S 701 mmHg 90%
    08:00 +2°C° 0,4 mm 7 m/S 701 mmHg 89%
    09:00 +2°C° 0,4 mm 6 m/S 701 mmHg 88%
    10:00 +2°C° 0,4 mm 6 m/S 702 mmHg 87%
    11:00 +2°C° 0,1 mm 6 m/S 701 mmHg 86%
    12:00 +2°C° 0,1 mm 6 m/S 701 mmHg 85%
    13:00 +3°C° 0,1 mm 6 m/S 700 mmHg 83%
    14:00 +2°C° 0 mm 6 m/S 699 mmHg 84%
    15:00 +2°C° 0 mm 5 m/S 699 mmHg 84%
    16:00 +2°C° 0 mm 5 m/S 698 mmHg 85%
    17:00 +2°C° 0,2 mm 6 m/S 697 mmHg 84%
    18:00 +2°C° 0,2 mm 7 m/S 697 mmHg 83%
    19:00 +1°C° 0,2 mm 8 m/S 696 mmHg 82%
    20:00 +1°C° 2,5 mm 8 m/S 696 mmHg 84%
    21:00 +2°C° 2,5 mm 7 m/S 696 mmHg 85%
    22:00 +2°C° 2,5 mm 6 m/S 696 mmHg 87%
    23:00 +1°C° 1,4 mm 6 m/S 696 mmHg 87%

    15 Dezember, Freitag

    Zeit Temperatur Niederschläge Wind Luftdruck Luftfeuchtigkeit
    00:00 0°C° 1,4 mm 5 m/S 697 mmHg 87%
    01:00 -1°C° 1,4 mm 5 m/S 698 mmHg 86%
    02:00 -1°C° 0,2 mm 5 m/S 698 mmHg 87%
    03:00 -1°C° 0,2 mm 5 m/S 698 mmHg 88%
    04:00 -1°C° 0,2 mm 4 m/S 698 mmHg 89%
    05:00 -1°C° 0,1 mm 5 m/S 698 mmHg 89%
    06:00 -1°C° 0,1 mm 5 m/S 698 mmHg 89%
    07:00 -1°C° 0,1 mm 5 m/S 698 mmHg 88%
    08:00 -2°C° 0 mm 6 m/S 698 mmHg 86%
    09:00 -2°C° 0 mm 6 m/S 699 mmHg 84%
    10:00 -2°C° 0 mm 7 m/S 699 mmHg 82%
    11:00 -1°C° 0 mm 7 m/S 698 mmHg 80%
    12:00 -1°C° 0 mm 7 m/S 698 mmHg 78%
    13:00 -1°C° 0 mm 7 m/S 698 mmHg 76%
    14:00 -1°C° 0,1 mm 6 m/S 698 mmHg 78%
    15:00 -1°C° 0,1 mm 6 m/S 698 mmHg 80%
    16:00 -2°C° 0,1 mm 6 m/S 698 mmHg 82%
    17:00 -2°C° 0,3 mm 6 m/S 698 mmHg 83%
    18:00 -3°C° 0,3 mm 6 m/S 699 mmHg 85%
    19:00 -2°C° 0,3 mm 5 m/S 699 mmHg 86%
    20:00 -2°C° 0,1 mm 5 m/S 700 mmHg 87%
    21:00 -2°C° 0,1 mm 5 m/S 700 mmHg 88%
    22:00 -2°C° 0,1 mm 5 m/S 701 mmHg 89%
    23:00 -2°C° 0,5 mm 5 m/S 701 mmHg 89%

    16 Dezember, Samstag

    Zeit Temperatur Niederschläge Wind Luftdruck Luftfeuchtigkeit
    00:00 -2°C° 0,5 mm 5 m/S 701 mmHg 89%
    01:00 -2°C° 0,5 mm 5 m/S 702 mmHg 89%
    02:00 -2°C° 0,4 mm 5 m/S 702 mmHg 90%
    03:00 -2°C° 0,4 mm 5 m/S 703 mmHg 91%
    04:00 -3°C° 0,4 mm 6 m/S 703 mmHg 91%
    05:00 -4°C° 0,2 mm 5 m/S 704 mmHg 91%
    06:00 -4°C° 0,2 mm 5 m/S 705 mmHg 91%
    07:00 -3°C° 0,2 mm 4 m/S 705 mmHg 90%
    08:00 -4°C° 0,1 mm 5 m/S 706 mmHg 89%
    09:00 -4°C° 0,1 mm 5 m/S 707 mmHg 89%
    10:00 -2°C° 0,1 mm 5 m/S 707 mmHg 88%
    11:00 -2°C° 0,1 mm 5 m/S 707 mmHg 86%
    12:00 -2°C° 0,1 mm 5 m/S 707 mmHg 84%
    13:00 -1°C° 0,1 mm 5 m/S 707 mmHg 82%
    14:00 -2°C° 0,1 mm 5 m/S 707 mmHg 83%
    15:00 -2°C° 0,1 mm 5 m/S 707 mmHg 85%
    16:00 -2°C° 0,1 mm 4 m/S 707 mmHg 86%
    17:00 -2°C° 0,3 mm 4 m/S 708 mmHg 87%
    18:00 -3°C° 0,3 mm 4 m/S 708 mmHg 88%
    19:00 -3°C° 0,3 mm 4 m/S 709 mmHg 89%
    20:00 -3°C° 0,3 mm 4 m/S 709 mmHg 90%
    21:00 -3°C° 0,3 mm 4 m/S 709 mmHg 91%
    22:00 -3°C° 0,3 mm 4 m/S 709 mmHg 92%
    23:00 -3°C° 0,5 mm 4 m/S 709 mmHg 93%

    17 Dezember, Sonntag

    Zeit Temperatur Niederschläge Wind Luftdruck Luftfeuchtigkeit
    00:00 -3°C° 0,5 mm 4 m/S 710 mmHg 94%
    01:00 -2°C° 0,5 mm 3 m/S 710 mmHg 95%
    02:00 -4°C° 0,5 mm 3 m/S 710 mmHg 95%
    03:00 -4°C° 0,5 mm 3 m/S 710 mmHg 95%
    04:00 -4°C° 0,5 mm 3 m/S 710 mmHg 96%
    05:00 -3°C° 0,4 mm 2 m/S 711 mmHg 96%
    06:00 -4°C° 0,4 mm 2 m/S 711 mmHg 96%
    07:00 -4°C° 0,4 mm 2 m/S 712 mmHg 96%
    08:00 -4°C° 0,1 mm 2 m/S 712 mmHg 95%
    09:00 -4°C° 0,1 mm 2 m/S 713 mmHg 94%
    10:00 -3°C° 0,1 mm 2 m/S 713 mmHg 93%
    11:00 -3°C° 0 mm 2 m/S 713 mmHg 91%
    12:00 -2°C° 0 mm 3 m/S 713 mmHg 89%
    13:00 -2°C° 0 mm 3 m/S 714 mmHg 88%
    14:00 -2°C° 0 mm 2 m/S 714 mmHg 88%
    15:00 -2°C° 0 mm 2 m/S 714 mmHg 89%
    16:00 -2°C° 0 mm 2 m/S 715 mmHg 90%
    17:00 -3°C° 0 mm 2 m/S 715 mmHg 91%
    18:00 -4°C° 0 mm 2 m/S 716 mmHg 92%
    19:00 -5°C° 0 mm 2 m/S 716 mmHg 93%
    20:00 -5°C° 0 mm 2 m/S 716 mmHg 92%
    21:00 -6°C° 0 mm 2 m/S 717 mmHg 92%
    22:00 -7°C° 0 mm 2 m/S 717 mmHg 92%
    23:00 -7°C° 0 mm 2 m/S 717 mmHg 91%
    Mehr zeigen